Voltar ao catálogo

OPS 4682 DEB

AtivoPO
NORAD 18268·DEBRIS·🇺🇸 United States

Lançado Apr 3, 1965 de Vandenberg Space Force Base

Loading…

Próximas Passagens (próximas 24 horas)

TLE

AtualizadoSource: Space-Track

Época: Sep 14, 2026, 06:55 UTC

1 18268U 65027X   26257.28862073  .00000480  00000-0  16167-2 0  9998
2 18268  90.2508   6.7302 0035713 184.9072 175.1704 12.97775209673492

Acompanhe OPS 4682 DEB em tempo real com AllMySat

Download on the App Store